Location: Sungai Jaoh
(2.9167°N, 113.9167°E)
Time: 07:55:12
(UTC+00:00)

Envisat - Pass Details

Date: 01 October 2021
Orbit: 764 x 766 km, 98.2° (Epoch: 25 October)

Event Time Altitude Azimuth Distance (km) Brightness Sun altitude
Rises 20:28:01 0° 33° (NNE) 3,214 6.6 -26.6°
Reaches altitude 10° 20:30:39 10° 45° (NE) 2,291 6.0 -25.9°
Maximum altitude 20:34:51 27° 102° (ESE) 1,447 5.1 -24.9°
Drops below altitude 10° 20:39:03 10° 158° (SSE) 2,297 5.7 -23.8°
Sets 20:41:40 0° 170° (S) 3,225 6.4 -23.2°
